Бирштонас

Литва     54°36′20″N   24°01′47″E
В апреле 2022 года жителям России запретили посещать сайт meteo.paraplan.net по решению Генеральной прокуратуры. Аудитория сайта уменьшилась в 10 раз. Владельцы сайта не видят смысла в поддержке погодного сервера в таких условиях. Сайт будет закрыт в октябре.
темп.,
°C
ветер,
м/с
пор.,
м/с
влажн.,
%
обл.,
%
осадки,
мм/ч
давл.,
гПа
погр.,
м
25 сентября, вс
вс2500:00+9з246494 0.0 101583
03:00+9з3674100 0.0 1015168
06:00+8зсз237499 0.0 1015102
09:00+9зсз2377100 0.0 1015141
12:00+12з2368100 0.0 1015431
15:00+14з235398 0.0 10131155
18:00+13зсз126399 0.0 101147
21:00+10юз117399 0.0 101110
26 сентября, пн
пн2600:00+9ю118115 0.0 101010
03:00+9ю1176100 0.0 101012
06:00+9ююв238089 0.0 100844
09:00+10ююв25737 0.0 1008139
12:00+16ю344910 0.0 1007973
15:00+17ю344373 0.0 10071902
18:00+14ююв2358100 0.0 100645
21:00+13юв4865100 0.0 1007229
27 сентября, вт
вт2700:00+12юв41072100 0.0 1006297
03:00+12юв397892 0.0 1006260
06:00+9юв389015 0.0 1005187
09:00+11вюв488538 0.0 1005277
12:00+13юв477896 0.0 1005471
15:00+17юв455730 0.3 10031351
18:00+15ююв377381 1.1 1003320
21:00+13вюв3879100 1.3 1003191
28 сентября, ср
ср2800:00+12вюв3982100 0.0 1003331
03:00+11вюв4987100 0.1 1002292
06:00+11вюв4992100 0.3 1001372
09:00+11вюв51191100 0.6 1000554
12:00+13вюв5977100 0.2 1000897
15:00+10зюз3595100 6.6 1000512
18:00+11зюз258432 0.5 1002478
21:00+9ююз388681 0.6 1003179
29 сентября, чт
чт2900:00+10ююв3780100 0.0 1004169
03:00+8юв41087100 0.0 1004199
06:00+9юв4985100 0.0 1004261
09:00+10ююв51180100 0.0 1004443
12:00+11ююв51080100 0.0 1005531
15:00+10ююв4894100 1.3 1006434
18:00+10ююв499579 0.5 1006405
21:00+10ююв3797100 0.5 1007247